FW7134 Weather Reports


time (UTC)temp
C
wind
direction
speed
KPH
gust
KPH
rain 1hr
cm
rain 24hr
cm
rain mn
cm
humidity
%
barometer
mb
20260510180052 15 150 17.7 40.2 0.00 0.13 0.13 100 1021.8
20260510174553 15 153 22.5 38.6 0.00 0.13 0.13 100 1022.1
20260510173044 14 162 17.7 35.4 0.00 0.13 0.13 100 1022.2
20260510171546 15 175 27.4 45.1 0.00 0.13 0.13 100 1022.5
20260510170044 16 151 24.1 38.6 0.00 0.13 0.13 100 1022.4
20260510164537 15 168 19.3 45.1 0.00 0.13 0.13 100 1022.7
20260510163033 11 153 8.0 20.9 0.00 0.13 0.13 100 1022.7
20260510161534 11 176 6.4 22.5 0.00 0.13 0.13 100 1022.7
20260510160033 10 153 9.7 19.3 0.00 0.13 0.13 100 1023.1
20260510154548 11 136 9.7 20.9 0.00 0.13 0.13 100 1023.0
20260510153030 14 156 14.5 29.0 0.00 0.13 0.13 100 1022.9
20260510151524 12 141 14.5 30.6 0.00 0.13 0.13 100 1023.4
20260510150020 12 157 17.7 32.2 0.00 0.13 0.13 100 1024.0
20260510144532 12 170 9.7 27.4 0.00 0.13 0.13 100 1024.0
20260510143032 12 169 17.7 40.2 0.00 0.13 0.13 100 1024.1
20260510141515 12 168 25.7 43.5 0.00 0.13 0.13 100 1024.5
20260510140011 13 188 25.7 38.6 0.00 0.13 0.13 100 1024.2
20260510134508 12 173 16.1 32.2 0.00 0.13 0.13 100 1024.3
20260510133004 12 192 16.1 25.7 0.00 0.13 0.13 100 1024.1
20260510131559 11 207 16.1 27.4 0.00 0.13 0.13 100 1024.1
20260510130055 8 138 1.6 4.8 0.00 0.13 0.13 100 1024.2
20260510124608 7 137 1.6 8.0 0.00 0.13 0.13 100 1024.1
20260510123051 7 141 6.4 12.9 0.00 0.13 0.13 100 1024.2
20260510121550 7 145 3.2 16.1 0.00 0.13 0.13 100 1024.3
20260510120050 7 146 6.4 14.5 0.00 0.13 0.13 100 1024.2
20260510114550 7 166 8.0 17.7 0.00 0.13 0.13 100 1024.3
20260510113049 7 173 3.2 12.9 0.00 0.13 0.13 100 1024.3
20260510111547 7 121 4.8 9.7 0.00 0.13 0.13 100 1024.3
20260510110051 7 128 4.8 8.0 0.00 0.13 0.13 100 1024.1
20260510104550 7 130 1.6 6.4 0.00 0.13 0.13 100 1024.2
20260510103044 7 129 1.6 8.0 0.00 0.13 0.13 100 1024.1
20260510101543 7 167 1.6 4.8 0.00 0.13 0.13 100 1024.0
20260510100042 7 167 0.0 3.2 0.00 0.13 0.13 100 1023.8
20260510094549 7 167 3.2 8.0 0.00 0.13 0.13 100 1023.7
20260510093054 7 173 4.8 8.0 0.00 0.13 0.13 100 1023.4
20260510091543 7 178 3.2 9.7 0.00 0.13 0.13 100 1023.3
20260510090036 7 194 3.2 9.7 0.00 0.13 0.13 100 1023.0
20260510084536 7 177 3.2 6.4 0.00 0.13 0.13 100 1022.8
20260510083033 6 176 3.2 6.4 0.00 0.13 0.13 100 1022.8
20260510081532 6 176 1.6 8.0 0.00 0.13 0.13 100 1022.8
20260510080030 6 179 3.2 6.4 0.00 0.13 0.13 100 1022.7
20260510074529 6 179 1.6 4.8 0.00 0.13 0.13 100 1022.6
20260510073038 6 179 1.6 4.8 0.03 0.13 0.13 100 1022.4
20260510071524 6 179 1.6 4.8 0.05 0.13 0.13 100 1022.1
20260510070029 7 182 3.2 9.7 0.05 0.13 0.13 100 1022.1
20260510064521 7 190 6.4 11.3 0.08 0.13 0.13 100 1022.1
20260510063018 7 178 4.8 8.0 0.08 0.10 0.10 100 1022.1
20260510061516 7 181 3.2 9.7 0.05 0.08 0.08 100 1022.0
20260510060015 7 176 3.2 6.4 0.05 0.08 0.08 100 1022.0
20260510054513 7 182 3.2 8.0 0.05 0.05 0.05 100 1021.9
20260510053033 7 183 3.2 6.4 0.03 0.03 0.03 100 1021.9
20260510051509 7 183 1.6 4.8 0.03 0.03 0.03 100 1021.7
20260510050009 7 184 0.0 6.4 0.03 0.03 0.03 100 1021.6
20260510044503 7 184 0.0 3.2 0.00 0.00 0.00 100 1021.6
20260510043106 8 183 0.0 6.4 0.00 0.00 0.00 100 1021.4
20260510041559 8 183 1.6 6.4 0.00 0.00 0.00 100 1021.5
20260510040058 8 181 4.8 8.0 0.00 0.00 0.00 100 1021.2
20260510034555 8 186 4.8 12.9 0.00 0.00 0.00 100 1021.1
20260510033101 8 177 6.4 11.3 0.00 0.00 0.00 100 1021.1
20260510031552 8 175 3.2 6.4 0.00 0.00 0.00 100 1021.1
20260510030049 8 176 3.2 8.0 0.00 0.00 0.00 100 1020.9
20260510024550 9 189 6.4 14.5 0.00 0.00 0.00 100 1020.8
20260510023046 9 184 6.4 12.9 0.00 0.00 0.00 100 1020.8
20260510021550 9 214 8.0 12.9 0.00 0.00 0.00 100 1020.9
20260510020044 9 198 4.8 12.9 0.00 0.00 0.00 100 1020.8
20260510014545 9 215 9.7 14.5 0.00 0.00 0.00 100 1020.7
20260510013049 9 199 8.0 12.9 0.00 0.00 0.00 100 1020.7
20260510011547 9 214 9.7 19.3 0.00 0.00 0.00 100 1020.7
20260510010042 8 227 9.7 17.7 0.00 0.00 0.00 100 1020.5
20260510004544 7 213 4.8 8.0 0.00 0.00 0.00 100 1020.5
20260510003041 7 211 6.4 8.0 0.00 0.00 0.00 100 1020.6
20260510001542 7 210 3.2 6.4 0.00 0.00 0.00 100 1020.1
20260510000047 8 203 4.8 9.7 0.00 0.00 0.00 100 1020.0
20260509234536 8 209 6.4 9.7 0.00 0.00 0.00 100 1020.0
20260509233034 8 156 3.2 4.8 0.00 0.00 0.00 100 1019.5
20260509231531 9 156 0.0 1.6 0.00 0.00 0.00 100 1019.3
20260509230033 9 156 0.0 1.6 0.00 0.00 0.00 100 1018.8
20260509224530 10 156 0.0 1.6 0.00 0.00 0.00 100 1018.6
20260509223028 10 156 1.6 4.8 0.00 0.00 0.00 100 1018.6
20260509221527 11 152 3.2 9.7 0.00 0.00 0.00 100 1018.4
20260509220025 10 165 3.2 4.8 0.00 0.00 0.00 100 1018.5
20260509214524 10 170 3.2 9.7 0.00 0.03 0.00 100 1018.2
20260509213028 11 155 4.8 11.3 0.00 0.03 0.00 100 1018.2
20260509211520 10 112 1.6 4.8 0.00 0.03 0.00 100 1017.9
20260509210020 10 108 1.6 11.3 0.00 0.03 0.00 100 1017.8
20260509204519 11 170 1.6 9.7 0.00 0.05 0.00 100 1017.6
20260509203018 10 173 3.2 8.0 0.00 0.05 0.00 100 1017.5
20260509201517 8 173 3.2 9.7 0.00 0.05 0.00 100 1017.6
20260509200117 8 146 3.2 11.3 0.00 0.05 0.00 100 1017.3
20260509194514 8 176 3.2 6.4 0.00 0.08 0.00 100 1017.5
20260509193023 7 169 3.2 8.0 0.00 0.08 0.00 100 1017.3
20260509191513 7 169 4.8 8.0 0.00 0.08 0.00 100 1017.2
20260509190015 8 146 3.2 11.3 0.00 0.08 0.00 100 1017.0
20260509184528 8 123 6.4 12.9 0.00 0.08 0.00 100 1017.1
20260509183009 9 113 8.0 16.1 0.00 0.08 0.00 100 1017.0
20260509181508 9 74 8.0 16.1 0.00 0.08 0.00 100 1016.6